Regional Weather Roundup
Issued by NWS

Home | Current Version | Previous Version | Graphics & Text | Print | Product List | Glossary Off
Versions: 1 2 3 4 5 6 7 8 9 10 11 12 13 14 15 16 17 18 19 20 21 22 23 24 25 26 27 28 29 30 31 32 33 34 35 36 37 38 39 40 41 42 43 44 45 46 47 48 49 50

000
ASUS45 KCYS 061710
RWRWY

WYOMING REGIONAL WEATHER ROUNDUP
NATIONAL WEATHER SERVICE CHEYENNE WY
1000 AM MST FRI MAR 06 2015

NOTE:  "FAIR" INDICATES FEW OR NO CLOUDS BELOW 12,000 FEET
WITH NO SIGNIFICANT WEATHER AND/OR OBSTRUCTIONS TO VISIBILITY.

WYZ001-061800-
YELLOWSTONE NATIONAL PARK

CITY           SKY/WX    TMP DP  RH WIND       PRES   REMARKS
LK YELLOWSTONE   N/A     20   8  60 E3        30.41R
W YELLOWSTONE  NOT AVBL

$$
WYZ002>013-054>058-071-098>099-061800-
NORTHERN WYOMING

CITY           SKY/WX    TMP DP  RH WIND       PRES   REMARKS
JACKSON        SUNNY     16   9  73 NE7       30.44R WCI   6
CODY           FAIR      46  14  27 W12G21    30.22S
GREYBULL       FAIR      35  18  49 SE3       30.28S
WORLAND        FAIR      33  20  58 CALM      30.27S
SHERIDAN       FAIR      43  21  41 CALM      30.19R
BUFFALO        FAIR      44  20  38 S7        30.19S
GILLETTE       FAIR      46  16  30 W15       30.18S
HULETT         PTSUNNY   43  19  39 SW12G17   30.17S
NEWCASTLE      FAIR      45  14  29 NW13      30.20F

$$
WYZ014>020-022>026-101>103-061800-
CENTRAL WYOMING

CITY           SKY/WX    TMP DP  RH WIND       PRES   REMARKS
BIG PINEY      FAIR      35  15  44 N9        30.38F WCI  28
PINEDALE       FAIR      28  16  59 NW15      30.38F WCI  17
DUBOIS         FAIR      32  14  47 N15       30.31F WCI  22
LANDER         FAIR      33  17  51 CALM      30.25S
RIVERTON       FAIR      20  12  71 VRB3      30.28R
CASPER         FAIR      33  19  56 SW22G28   30.27R WCI  21
DOUGLAS        FAIR      34  19  54 NW6       30.25S WCI  29

$$
WYZ021-027>030-104>119-061800-
SOUTHERN WYOMING

CITY           SKY/WX    TMP DP  RH WIND       PRES   REMARKS
EVANSTON       FAIR      32  16  51 SW12      30.44R WCI  23
FORT BRIDGER   FAIR      39  17  40 W13G18    30.45R WCI  32
ROCK SPRINGS   FAIR      33  15  47 W20       30.39R WCI  21
DIXON          FAIR      31  16  53 CALM      30.45R
RAWLINS        FAIR      31  17  56 W18       30.34S WCI  19
SARATOGA       FAIR      32  18  55 S6        30.37S WCI  26
LARAMIE        FAIR      34  14  43 W16       30.29S WCI  24
CHEYENNE       FAIR      41  13  31 W12       30.28R
TORRINGTON     FAIR      47  18  31 W17       30.24S
PINE BLUFFS    FAIR      45  14  29 NW23G30   30.27S

$$



USA.gov is the U.S. government's official web portal to all federal, state and local government web resources and services.